Location: Brunembert
(50.7122°N, 1.8935°E)
Time: 09:25:45
(UTC+00:00)

Cosmos 1862 - Pass Details

Date: 22 April 2021
Orbit: 537 x 556 km, 82.5° (Epoch: 16 May)

Event Time Altitude Azimuth Distance (km) Brightness Sun altitude
Rises 21:34:43 0° 348° (NNW) 2,705 8.0 -20.2°
Reaches altitude 10° 21:36:53 10° 348° (NNW) 1,809 6.9 -20.4°
Maximum altitude 21:40:51 81° 262° (W) 553 3.2 -20.7°
Enters shadow 21:41:28 61° 190° (S) 615 3.2 -20.8°
